Henderson, KY

4:29 AM CST on November 12, 2019 (GMT -0600)
Henderson City-County

Weather History for KEHR - September, 2019

Change the Weather History Date:

Tuesday, September 17, 2019

  Actual Average Record
Temperature  
Mean Temperature 78 °F -  
Max Temperature 90 °F 81 °F 99 °F (1935)
Min Temperature 66 °F 58 °F 36 °F (1937)
Cooling Degree Days 13    
Growing Degree Days 28 (Base 50)    
Moisture  
Dew Point 67 °F    
Average Humidity 71    
Maximum Humidity 97    
Minimum Humidity 43    
Precipitation  
Precipitation 0.00 in - - ()
Sea Level Pressure  
Sea Level Pressure 30.04 in    
Wind  
Wind Speed 3 mph (NE)    
Max Wind Speed 7 mph    
Max Gust Speed -    
Visibility 10 miles    
Events      
Averages and records for this station are not official NWS values.
T = Trace of Precipitation, MM = Missing Value Source: NWS Daily Summary

Daily Weather History Graph

Daily Weather History Graph

Search for Another Location

Airport or City:

Astronomy

Sep. 17, 2019 Rise Set
Actual Time 6:34 AM CDT 6:55 PM CDT
Civil Twilight 6:07 AM CDT 7:22 PM CDT
Nautical Twilight 5:36 AM CDT 7:52 PM CDT
Astronomical Twilight 5:05 AM CDT 8:24 PM CDT
Moon 9:02 PM CDT (9/17) 9:35 AM CDT (9/17)
Length of Visible Light 13h 14m
Length of Day
12h 21m
Waning Gibbous, 89% of the Moon is Illuminated
Sep 17
Waning Gibbous
Sep 21
Last Quarter
Sep 28
New
Oct 5
First Quarter
Oct 13
Full

Hourly Weather History & Observations

Time (CDT) Temp. Heat Index Dew Point Humidity Pressure Visibility Wind Dir Wind Speed Gust Speed Precip Events Conditions
12:56 AM 69.1 °F - 68.0 °F 96% 30.03 in 8.0 mi Calm Calm - N/A   Clear
1:56 AM 68.0 °F - 66.9 °F 96% 30.03 in 8.0 mi Calm Calm - N/A   Clear
2:56 AM 70.0 °F - 69.1 °F 97% 30.03 in 10.0 mi Calm Calm - N/A   Partly Cloudy
3:56 AM 71.1 °F - 69.1 °F 93% 30.03 in 10.0 mi NNE 4.6 mph - N/A   Clear
4:56 AM 66.9 °F - 66.0 °F 97% 30.03 in 7.0 mi Calm Calm - N/A   Clear
5:56 AM 66.0 °F - 64.9 °F 96% 30.04 in 6.0 mi Calm Calm - N/A   Clear
6:56 AM 70.0 °F - 69.1 °F 97% 30.06 in 8.0 mi North 3.5 mph - N/A   Clear
7:56 AM 73.0 °F - 69.1 °F 87% 30.08 in 10.0 mi NE 4.6 mph - N/A   Clear
8:56 AM 77.0 °F - 70.0 °F 79% 30.09 in 10.0 mi NE 4.6 mph - N/A   Clear
9:56 AM 81.0 °F 84.1 °F 69.1 °F 67% 30.08 in 10.0 mi NE 6.9 mph - N/A   Clear
10:56 AM 84.0 °F 87.8 °F 69.1 °F 61% 30.07 in 10.0 mi Variable 3.5 mph - N/A   Clear
11:56 AM 87.1 °F 89.9 °F 66.9 °F 51% 30.07 in 10.0 mi NE 6.9 mph - N/A   Clear
12:56 PM 88.0 °F 90.7 °F 66.9 °F 49% 30.06 in 10.0 mi ENE 5.8 mph - N/A   Scattered Clouds
1:56 PM 89.1 °F 91.3 °F 66.0 °F 46% 30.04 in 10.0 mi ENE 4.6 mph - N/A   Partly Cloudy
2:56 PM 90.0 °F 91.7 °F 64.9 °F 43% 30.03 in 10.0 mi Variable 3.5 mph - N/A   Partly Cloudy
3:56 PM 89.1 °F 91.0 °F 64.9 °F 45% 30.01 in 10.0 mi East 6.9 mph - N/A   Clear
4:56 PM 89.1 °F 91.0 °F 64.9 °F 45% 30.00 in 10.0 mi East 4.6 mph - N/A   Clear
5:56 PM 86.0 °F 88.2 °F 66.0 °F 51% 30.00 in 10.0 mi North 3.5 mph - N/A   Clear
6:56 PM 82.0 °F 84.5 °F 66.9 °F 60% 30.00 in 10.0 mi NNE 5.8 mph - N/A   Clear
7:56 PM 77.0 °F - 66.9 °F 71% 30.01 in 10.0 mi NNE 5.8 mph - N/A   Clear
8:56 PM 77.0 °F - 66.0 °F 69% 30.02 in 10.0 mi NE 6.9 mph - N/A   Clear
9:56 PM 75.9 °F - 64.0 °F 67% 30.03 in 10.0 mi NE 6.9 mph - N/A   Clear
10:56 PM 73.9 °F - 64.0 °F 71% 30.03 in 10.0 mi ENE 5.8 mph - N/A   Clear
11:56 PM 72.0 °F - 63.0 °F 73% 30.04 in 10.0 mi NE 3.5 mph - N/A   Clear